Location: Boiro
(42.6475°N, 8.8834°W)
Time: 23:20:31
(UTC+01:00)

A-11 Canister half - Pass Details

Date: 30 November 2021
Orbit: 1516 x 1684 km, 47.2° (Epoch: 18 January)

Event Time Altitude Azimuth Distance (km) Brightness Sun altitude
Rises 18:02:42 0° 289° (WNW) 4,939 12.3 -0.7°
Reaches altitude 10° 18:07:34 10° 270° (W) 3,947 12.3 -1.5°
Maximum altitude 18:12:56 16° 237° (WSW) 3,477 12.6 -2.4°
Drops below altitude 10° 18:18:17 10° 204° (SSW) 3,911 12.0 -3.3°
Sets 18:23:08 0° 184° (S) 4,870 12.1 -4.1°
